status,avgMeasuredTime,avgSpeed,extID,medianMeasuredTime,TIMESTAMP,vehicleCount,_id,REPORT_ID
OK,93,19,703,93,2014-08-01T07:50:00,2,20746255,206131
OK,107,16,703,107,2014-08-01T07:55:00,2,20746427,206131
OK,111,16,703,111,2014-08-01T08:00:00,3,20746758,206131
OK,111,16,703,111,2014-08-01T08:05:00,3,20747207,206131
OK,134,13,703,134,2014-08-01T08:10:00,2,20747580,206131
OK,134,13,703,134,2014-08-01T08:15:00,0,20748029,206131
OK,105,17,703,105,2014-08-01T08:20:00,1,20748478,206131
OK,105,17,703,105,2014-08-01T08:25:00,1,20748927,206131
OK,55,33,703,55,2014-08-01T08:30:00,3,20749376,206131
OK,72,25,703,72,2014-08-01T08:35:00,6,20749825,206131
OK,76,23,703,76,2014-08-01T08:40:00,3,20750274,206131
OK,76,23,703,76,2014-08-01T08:45:00,1,20750723,206131
OK,76,23,703,76,2014-08-01T08:50:00,0,20751172,206131
OK,85,21,703,85,2014-08-01T08:55:00,2,20751621,206131
OK,79,23,703,79,2014-08-01T09:00:00,1,20752070,206131
OK,79,23,703,79,2014-08-01T09:05:00,0,20752519,206131
OK,79,23,703,79,2014-08-01T09:10:00,0,20752968,206131
OK,89,20,703,89,2014-08-01T09:15:00,2,20753417,206131
OK,111,16,703,111,2014-08-01T09:20:00,1,20753866,206131
OK,95,19,703,95,2014-08-01T09:25:00,3,20754315,206131
OK,94,19,703,94,2014-08-01T09:30:00,1,20754764,206131
OK,94,19,703,94,2014-08-01T09:35:00,0,20755213,206131
OK,51,35,703,51,2014-08-01T09:40:00,3,20755662,206131
OK,61,29,703,61,2014-08-01T09:45:00,6,20756111,206131
OK,69,26,703,69,2014-08-01T09:50:00,3,20756560,206131
OK,75,24,703,75,2014-08-01T09:55:00,1,20757009,206131
OK,54,33,703,54,2014-08-01T10:00:00,3,20757458,206131
OK,54,33,703,54,2014-08-01T10:05:00,3,20757907,206131
OK,61,29,703,61,2014-08-01T10:10:00,1,20758356,206131
OK,104,17,703,104,2014-08-01T10:15:00,3,20758805,206131
OK,129,14,703,129,2014-08-01T10:20:00,2,20759254,206131
OK,107,16,703,107,2014-08-01T10:25:00,4,20759703,206131
OK,116,15,703,116,2014-08-01T10:30:00,5,20760152,206131
OK,77,23,703,77,2014-08-01T10:35:00,3,20760601,206131
OK,79,23,703,79,2014-08-01T10:40:00,4,20761050,206131
OK,89,20,703,89,2014-08-01T10:45:00,2,20761499,206131
OK,82,22,703,82,2014-08-01T10:50:00,2,20761948,206131
OK,94,19,703,94,2014-08-01T10:55:00,3,20762397,206131
OK,76,23,703,76,2014-08-01T11:00:00,5,20762846,206131
OK,73,24,703,73,2014-08-01T11:05:00,5,20763295,206131
OK,83,21,703,83,2014-08-01T11:10:00,4,20763744,206131
OK,47,38,703,47,2014-08-01T11:15:00,2,20764193,206131
OK,51,35,703,51,2014-08-01T11:20:00,3,20764641,206131
OK,67,27,703,67,2014-08-01T11:25:00,3,20765090,206131
OK,71,25,703,71,2014-08-01T11:30:00,2,20765539,206131
OK,76,23,703,76,2014-08-01T11:35:00,1,20765988,206131
OK,76,23,703,76,2014-08-01T11:40:00,0,20766437,206131
OK,98,18,703,98,2014-08-01T11:45:00,3,20766886,206131
OK,118,15,703,118,2014-08-01T11:50:00,4,20767335,206131
OK,117,15,703,117,2014-08-01T11:55:00,3,20767784,206131
OK,100,18,703,100,2014-08-01T12:00:00,1,20768233,206131
OK,100,18,703,100,2014-08-01T12:05:00,0,20768682,206131
OK,90,20,703,90,2014-08-01T12:10:00,2,20769131,206131
OK,96,18,703,96,2014-08-01T12:15:00,3,20769580,206131
OK,81,22,703,81,2014-08-01T12:20:00,3,20770029,206131
OK,81,22,703,81,2014-08-01T12:25:00,5,20770478,206131
OK,83,21,703,83,2014-08-01T12:30:00,6,20770927,206131
OK,83,21,703,83,2014-08-01T12:35:00,4,20771376,206131
OK,107,16,703,107,2014-08-01T12:40:00,2,20771825,206131
OK,114,15,703,114,2014-08-01T12:45:00,1,20772274,206131
OK,114,15,703,114,2014-08-01T12:50:00,0,20772723,206131
OK,98,18,703,98,2014-08-01T12:55:00,2,20773172,206131
OK,98,18,703,98,2014-08-01T13:00:00,4,20773621,206131
OK,111,16,703,111,2014-08-01T13:05:00,3,20774070,206131
OK,113,16,703,113,2014-08-01T13:10:00,2,20774519,206131
OK,115,15,703,115,2014-08-01T13:15:00,1,20774968,206131
OK,99,18,703,99,2014-08-01T13:20:00,2,20775417,206131
OK,127,14,703,127,2014-08-01T13:25:00,2,20775866,206131
OK,111,16,703,111,2014-08-01T13:30:00,3,20776315,206131
OK,75,24,703,75,2014-08-01T13:35:00,3,20776764,206131
OK,75,24,703,75,2014-08-01T13:40:00,5,20777213,206131
OK,134,13,703,134,2014-08-01T13:45:00,6,20777662,206131
OK,151,12,703,151,2014-08-01T13:50:00,5,20778111,206131
OK,134,13,703,134,2014-08-01T13:55:00,2,20778560,206131
OK,61,29,703,61,2014-08-01T14:00:00,2,20779009,206131
OK,74,24,703,74,2014-08-01T14:05:00,3,20779458,206131
OK,56,32,703,56,2014-08-01T14:10:00,2,20779907,206131
OK,63,28,703,63,2014-08-01T14:15:00,4,20780356,206131
OK,72,25,703,72,2014-08-01T14:20:00,2,20780805,206131
OK,74,24,703,74,2014-08-01T14:25:00,0,20781254,206131
OK,74,24,703,74,2014-08-01T14:30:00,0,20781703,206131
OK,74,24,703,74,2014-08-01T14:35:00,0,20782152,206131
OK,74,24,703,74,2014-08-01T14:40:00,0,20782601,206131
OK,74,24,703,74,2014-08-01T14:45:00,0,20783050,206131
OK,85,21,703,85,2014-08-01T14:50:00,2,20783499,206131
OK,115,15,703,115,2014-08-01T14:55:00,1,20783948,206131
OK,94,19,703,94,2014-08-01T15:00:00,2,20784397,206131
OK,87,20,703,87,2014-08-01T15:05:00,4,20784846,206131
OK,87,20,703,87,2014-08-01T15:10:00,3,20785295,206131
OK,53,34,703,53,2014-08-01T15:15:00,1,20785744,206131
OK,90,20,703,90,2014-08-01T15:20:00,1,20786193,206131
OK,90,20,703,90,2014-08-01T15:25:00,1,20786642,206131
OK,84,21,703,84,2014-08-01T15:30:00,1,20787091,206131
OK,83,21,703,83,2014-08-01T15:35:00,3,20787540,206131
OK,120,15,703,120,2014-08-01T15:40:00,2,20787989,206131
OK,158,11,703,158,2014-08-01T15:45:00,1,20788438,206131
OK,103,17,703,103,2014-08-01T15:50:00,1,20788887,206131
OK,103,17,703,103,2014-08-01T15:55:00,1,20789336,206131
OK,103,17,703,103,2014-08-01T16:00:00,0,20789785,206131
OK,82,22,703,82,2014-08-01T16:05:00,1,20790234,206131
OK,76,23,703,76,2014-08-01T16:10:00,2,20790683,206131
OK,71,25,703,71,2014-08-01T16:15:00,1,20791132,206131
OK,71,25,703,71,2014-08-01T16:20:00,0,20791581,206131
OK,71,25,703,71,2014-08-01T16:25:00,0,20792030,206131
OK,81,22,703,81,2014-08-01T16:30:00,1,20792479,206131
OK,101,18,703,101,2014-08-01T16:35:00,2,20792928,206131
OK,122,14,703,122,2014-08-01T16:40:00,1,20793377,206131
OK,86,21,703,86,2014-08-01T16:45:00,1,20793826,206131
OK,77,23,703,77,2014-08-01T16:50:00,3,20794275,206131
OK,72,25,703,72,2014-08-01T16:55:00,2,20794724,206131
OK,68,26,703,68,2014-08-01T17:00:00,1,20795173,206131
OK,68,26,703,68,2014-08-01T17:05:00,0,20795622,206131
OK,76,23,703,76,2014-08-01T17:10:00,1,20796071,206131
OK,76,23,703,76,2014-08-01T17:15:00,1,20796520,206131
OK,76,23,703,76,2014-08-01T17:20:00,0,20796969,206131
OK,76,23,703,76,2014-08-01T17:25:00,0,20797418,206131
OK,71,25,703,71,2014-08-01T17:30:00,1,20797867,206131
OK,71,25,703,71,2014-08-01T17:35:00,1,20798316,206131
OK,106,17,703,106,2014-08-01T17:40:00,1,20798765,206131
OK,106,17,703,106,2014-08-01T17:45:00,1,20799214,206131
OK,106,17,703,106,2014-08-01T17:50:00,0,20799663,206131
OK,106,17,703,106,2014-08-01T17:55:00,0,20800112,206131
OK,79,23,703,79,2014-08-01T18:00:00,1,20800561,206131
OK,114,15,703,114,2014-08-01T18:05:00,2,20801010,206131
OK,124,14,703,124,2014-08-01T18:10:00,2,20801459,206131
OK,99,18,703,99,2014-08-01T18:15:00,1,20801908,206131
OK,99,18,703,99,2014-08-01T18:20:00,0,20802357,206131
OK,99,18,703,99,2014-08-01T18:25:00,0,20802806,206131
OK,166,10,703,166,2014-08-01T18:30:00,1,20803255,206131
OK,166,10,703,166,2014-08-01T18:35:00,1,20803704,206131
OK,166,10,703,166,2014-08-01T18:40:00,0,20804153,206131
OK,166,10,703,166,2014-08-01T18:45:00,0,20804602,206131
OK,166,10,703,166,2014-08-01T18:50:00,0,20805051,206131
OK,166,10,703,166,2014-08-01T18:55:00,0,20805500,206131
OK,166,10,703,166,2014-08-01T19:00:00,0,20805949,206131
OK,166,10,703,166,2014-08-01T19:05:00,0,20806398,206131
OK,166,10,703,166,2014-08-01T19:10:00,0,20806847,206131
OK,166,10,703,166,2014-08-01T19:15:00,0,20807296,206131
OK,78,23,703,78,2014-08-01T19:20:00,2,20807745,206131
OK,78,23,703,78,2014-08-01T19:25:00,2,20808194,206131
OK,106,17,703,106,2014-08-01T19:30:00,0,20808643,206131
OK,70,25,703,70,2014-08-01T19:35:00,1,20809092,206131
OK,75,24,703,75,2014-08-01T19:40:00,2,20809541,206131
OK,80,22,703,80,2014-08-01T19:45:00,0,20809990,206131
OK,80,22,703,80,2014-08-01T19:50:00,0,20810439,206131
OK,80,22,703,80,2014-08-01T19:55:00,0,20810888,206131
OK,80,22,703,80,2014-08-01T20:00:00,0,20811333,206131
OK,80,22,703,80,2014-08-01T20:05:00,0,20811507,206131
OK,80,22,703,80,2014-08-01T20:10:00,0,20811710,206131
OK,118,15,703,118,2014-08-01T20:15:00,1,20811916,206131
OK,118,15,703,118,2014-08-01T20:20:00,1,20812125,206131
OK,118,15,703,118,2014-08-01T20:25:00,0,20812343,206131
OK,83,21,703,83,2014-08-01T20:30:00,2,20812558,206131
OK,83,21,703,83,2014-08-01T20:35:00,2,20812766,206131
OK,83,21,703,83,2014-08-01T20:40:00,0,20812968,206131
OK,83,21,703,83,2014-08-01T20:45:00,0,20813176,206131
OK,83,21,703,83,2014-08-01T20:50:00,0,20813387,206131
OK,83,21,703,83,2014-08-01T20:55:00,0,20813617,206131
OK,83,21,703,83,2014-08-01T21:00:00,0,20813855,206131
OK,83,21,703,83,2014-08-01T21:05:00,0,20814031,206131
OK,53,34,703,53,2014-08-01T21:10:00,1,20814271,206131
OK,57,31,703,57,2014-08-01T21:15:00,4,20814467,206131
OK,59,30,703,59,2014-08-01T21:20:00,3,20814674,206131
OK,62,29,703,62,2014-08-01T21:25:00,1,20814903,206131
OK,62,29,703,62,2014-08-01T21:30:00,0,20815179,206131
OK,62,29,703,62,2014-08-01T21:35:00,0,20815412,206131
OK,62,29,703,62,2014-08-01T21:40:00,0,20815636,206131
OK,62,29,703,62,2014-08-01T21:45:00,0,20815873,206131
OK,62,29,703,62,2014-08-01T21:50:00,0,20816114,206131
OK,62,29,703,62,2014-08-01T21:55:00,0,20816349,206131
OK,62,29,703,62,2014-08-01T22:00:00,0,20816617,206131
OK,62,29,703,62,2014-08-01T22:05:00,0,20817066,206131
OK,62,29,703,62,2014-08-01T22:10:00,0,20817388,206131
OK,62,29,703,62,2014-08-01T22:15:00,0,20817817,206131
OK,62,29,703,62,2014-08-01T22:20:00,0,20818107,206131
OK,62,29,703,62,2014-08-01T22:25:00,0,20818423,206131
OK,62,29,703,62,2014-08-01T22:30:00,0,20818757,206131
OK,62,29,703,62,2014-08-01T22:35:00,0,20819059,206131
OK,62,29,703,62,2014-08-01T22:40:00,0,20819241,206131
OK,62,29,703,62,2014-08-01T22:45:00,0,20819529,206131
OK,62,29,703,62,2014-08-01T22:50:00,0,20819764,206131
OK,62,29,703,62,2014-08-01T22:55:00,0,20820017,206131
OK,62,29,703,62,2014-08-01T23:00:00,0,20820193,206131
OK,62,29,703,62,2014-08-01T23:05:00,0,20820446,206131
OK,62,29,703,62,2014-08-01T23:10:00,0,20820676,206131
OK,62,29,703,62,2014-08-01T23:15:00,0,20820864,206131
OK,62,29,703,62,2014-08-01T23:20:00,0,20821114,206131
OK,62,29,703,62,2014-08-01T23:25:00,0,20821292,206131
OK,62,29,703,62,2014-08-01T23:30:00,0,20821518,206131
OK,62,29,703,62,2014-08-01T23:35:00,0,20821763,206131
OK,62,29,703,62,2014-08-01T23:40:00,0,20821942,206131
OK,50,36,703,50,2014-08-01T23:45:00,0,20822165,206131
OK,50,36,703,50,2014-08-01T23:50:00,0,20822432,206131
OK,50,36,703,50,2014-08-01T23:55:00,0,20822758,206131
OK,50,36,703,50,2014-08-02T00:00:00,0,20823056,206131
OK,50,36,703,50,2014-08-02T00:05:00,0,20823505,206131
OK,50,36,703,50,2014-08-02T00:10:00,0,20823954,206131
OK,50,36,703,50,2014-08-02T00:15:00,0,20824403,206131
OK,50,36,703,50,2014-08-02T00:20:00,0,20824852,206131
OK,50,36,703,50,2014-08-02T00:25:00,0,20825301,206131
OK,50,36,703,50,2014-08-02T00:30:00,0,20825750,206131
OK,50,36,703,50,2014-08-02T00:35:00,0,20826199,206131
OK,50,36,703,50,2014-08-02T00:40:00,0,20826648,206131
OK,50,36,703,50,2014-08-02T00:45:00,0,20827097,206131
OK,50,36,703,50,2014-08-02T00:50:00,0,20827546,206131
OK,50,36,703,50,2014-08-02T00:55:00,0,20827995,206131
OK,50,36,703,50,2014-08-02T01:00:00,0,20828444,206131
OK,50,36,703,50,2014-08-02T01:05:00,0,20828893,206131
OK,50,36,703,50,2014-08-02T01:10:00,0,20829342,206131
OK,50,36,703,50,2014-08-02T01:15:00,0,20829791,206131
OK,50,36,703,50,2014-08-02T01:20:00,0,20830240,206131
OK,50,36,703,50,2014-08-02T01:25:00,0,20830689,206131
OK,50,36,703,50,2014-08-02T01:30:00,0,20831138,206131
OK,50,36,703,50,2014-08-02T01:35:00,0,20831587,206131
OK,50,36,703,50,2014-08-02T01:40:00,0,20832036,206131
OK,50,36,703,50,2014-08-02T01:45:00,0,20832485,206131
OK,50,36,703,50,2014-08-02T01:50:00,0,20832934,206131
OK,50,36,703,50,2014-08-02T01:55:00,0,20833383,206131
OK,50,36,703,50,2014-08-02T02:00:00,0,20833832,206131
OK,50,36,703,50,2014-08-02T02:05:00,0,20834281,206131
OK,50,36,703,50,2014-08-02T02:10:00,0,20834730,206131
OK,50,36,703,50,2014-08-02T02:15:00,0,20835179,206131
OK,50,36,703,50,2014-08-02T02:20:00,0,20835628,206131
OK,50,36,703,50,2014-08-02T02:25:00,0,20836077,206131
OK,50,36,703,50,2014-08-02T02:30:00,0,20836526,206131
OK,50,36,703,50,2014-08-02T02:35:00,0,20836975,206131
OK,85,21,703,85,2014-08-02T02:40:00,1,20837424,206131
OK,85,21,703,85,2014-08-02T02:45:00,1,20837873,206131
OK,85,21,703,85,2014-08-02T02:50:00,0,20838322,206131
OK,85,21,703,85,2014-08-02T02:55:00,0,20838771,206131
OK,85,21,703,85,2014-08-02T03:00:00,0,20839220,206131
OK,85,21,703,85,2014-08-02T03:05:00,0,20839669,206131
OK,85,21,703,85,2014-08-02T03:10:00,0,20840118,206131
OK,85,21,703,85,2014-08-02T03:15:00,0,20840567,206131
OK,85,21,703,85,2014-08-02T03:20:00,0,20841016,206131
OK,68,26,703,68,2014-08-02T03:25:00,1,20841465,206131
OK,68,26,703,68,2014-08-02T03:30:00,0,20841914,206131
OK,39,46,703,39,2014-08-02T03:35:00,1,20842363,206131
OK,39,46,703,39,2014-08-02T03:40:00,0,20842812,206131
OK,39,46,703,39,2014-08-02T03:45:00,0,20843261,206131
OK,39,46,703,39,2014-08-02T03:50:00,0,20843710,206131
OK,39,46,703,39,2014-08-02T03:55:00,0,20844159,206131
OK,39,46,703,39,2014-08-02T04:00:00,0,20844608,206131
OK,39,46,703,39,2014-08-02T04:05:00,0,20844739,206131
OK,39,46,703,39,2014-08-02T04:10:00,0,20845069,206131
OK,39,46,703,39,2014-08-02T04:15:00,0,20845249,206131
OK,39,46,703,39,2014-08-02T04:20:00,0,20845605,206131
OK,48,37,703,48,2014-08-02T04:25:00,1,20845971,206131
OK,44,41,703,44,2014-08-02T04:30:00,1,20846161,206131
OK,44,41,703,44,2014-08-02T04:35:00,0,20846528,206131
OK,44,41,703,44,2014-08-02T04:40:00,0,20846911,206131
OK,44,41,703,44,2014-08-02T04:45:00,0,20847170,206131
OK,51,35,703,51,2014-08-02T04:50:00,2,20847536,206131
OK,51,35,703,51,2014-08-02T04:55:00,4,20847893,206131
OK,54,33,703,54,2014-08-02T05:00:00,2,20848253,206131
OK,54,33,703,54,2014-08-02T05:05:00,0,20848417,206131
OK,54,33,703,54,2014-08-02T05:10:00,0,20848771,206131
OK,54,33,703,54,2014-08-02T05:15:00,0,20848963,206131
OK,54,33,703,54,2014-08-02T05:20:00,0,20849307,206131
OK,87,20,703,87,2014-08-02T05:30:00,1,20849832,206131
OK,87,20,703,87,2014-08-02T05:35:00,0,20850104,206131
OK,87,20,703,87,2014-08-02T05:40:00,0,20850397,206131
OK,95,19,703,95,2014-08-02T05:45:00,1,20850698,206131
OK,95,19,703,95,2014-08-02T05:50:00,1,20851056,206131
OK,95,19,703,95,2014-08-02T05:55:00,0,20851310,206131
OK,95,19,703,95,2014-08-02T06:00:00,0,20851613,206131
OK,95,19,703,95,2014-08-02T06:05:00,0,20852062,206131
OK,95,19,703,95,2014-08-02T06:10:00,0,20852511,206131
OK,95,19,703,95,2014-08-02T06:15:00,0,20852960,206131
OK,44,41,703,44,2014-08-02T06:20:00,1,20853409,206131
OK,44,41,703,44,2014-08-02T06:25:00,1,20853858,206131
OK,67,27,703,67,2014-08-02T06:30:00,1,20854307,206131
OK,74,24,703,74,2014-08-02T06:35:00,2,20854756,206131
OK,82,22,703,82,2014-08-02T06:40:00,1,20855205,206131
OK,82,22,703,82,2014-08-02T06:45:00,0,20855654,206131
OK,82,22,703,82,2014-08-02T06:50:00,0,20856103,206131
OK,69,26,703,69,2014-08-02T06:55:00,1,20856552,206131
OK,69,26,703,69,2014-08-02T07:00:00,1,20857001,206131
OK,69,26,703,69,2014-08-02T07:05:00,0,20857450,206131
OK,56,32,703,56,2014-08-02T07:10:00,3,20857899,206131
OK,69,26,703,69,2014-08-02T07:15:00,2,20858348,206131
OK,71,25,703,71,2014-08-02T07:20:00,1,20858797,206131
OK,71,25,703,71,2014-08-02T07:25:00,1,20859246,206131
OK,67,27,703,67,2014-08-02T07:30:00,2,20859695,206131
OK,67,27,703,67,2014-08-02T07:35:00,2,20860144,206131
OK,87,20,703,87,2014-08-02T07:40:00,2,20860593,206131
OK,87,20,703,87,2014-08-02T07:45:00,2,20861042,206131
OK,113,16,703,113,2014-08-02T07:50:00,0,20861491,206131
OK,95,19,703,95,2014-08-02T07:55:00,1,20861940,206131
OK,95,19,703,95,2014-08-02T08:00:00,1,20862389,206131
OK,64,28,703,64,2014-08-02T08:05:00,2,20862838,206131
OK,66,27,703,66,2014-08-02T08:10:00,3,20863287,206131
OK,145,12,703,145,2014-08-02T08:15:00,1,20863736,206131
OK,145,12,703,145,2014-08-02T08:20:00,0,20864185,206131
OK,145,12,703,145,2014-08-02T08:25:00,0,20864634,206131
OK,145,12,703,145,2014-08-02T08:30:00,0,20865083,206131
OK,41,44,703,41,2014-08-02T08:35:00,1,20865532,206131
OK,41,44,703,41,2014-08-02T08:40:00,0,20865981,206131
OK,41,44,703,41,2014-08-02T08:45:00,0,20866430,206131
OK,91,19,703,91,2014-08-02T08:50:00,1,20866879,206131
OK,91,19,703,91,2014-08-02T08:55:00,1,20867328,206131
OK,91,19,703,91,2014-08-02T09:00:00,0,20867777,206131
OK,106,17,703,106,2014-08-02T09:05:00,1,20868226,206131
OK,102,17,703,102,2014-08-02T09:10:00,3,20868675,206131
OK,97,18,703,97,2014-08-02T09:15:00,2,20869124,206131
OK,97,18,703,97,2014-08-02T09:20:00,0,20869573,206131
OK,97,18,703,97,2014-08-02T09:25:00,0,20870022,206131
OK,70,25,703,70,2014-08-02T09:30:00,2,20870471,206131
OK,56,32,703,56,2014-08-02T09:35:00,1,20870920,206131
OK,80,22,703,80,2014-08-02T09:40:00,1,20871369,206131
OK,91,19,703,91,2014-08-02T09:45:00,2,20871818,206131
OK,89,20,703,89,2014-08-02T09:50:00,2,20872267,206131
OK,49,37,703,49,2014-08-02T09:55:00,3,20872716,206131
OK,49,37,703,49,2014-08-02T10:00:00,3,20873165,206131
OK,66,27,703,66,2014-08-02T10:05:00,4,20873614,206131
OK,70,25,703,70,2014-08-02T10:10:00,3,20874063,206131
OK,98,18,703,98,2014-08-02T10:15:00,2,20874512,206131
OK,102,17,703,102,2014-08-02T10:20:00,2,20874961,206131
OK,125,14,703,125,2014-08-02T10:25:00,3,20875410,206131
OK,140,12,703,140,2014-08-02T10:30:00,2,20875859,206131
OK,90,20,703,90,2014-08-02T10:35:00,1,20876308,206131
OK,89,20,703,89,2014-08-02T10:40:00,4,20876757,206131
OK,76,23,703,76,2014-08-02T10:45:00,5,20877206,206131
OK,87,20,703,87,2014-08-02T10:50:00,5,20877655,206131
OK,99,18,703,99,2014-08-02T10:55:00,4,20878104,206131
OK,100,18,703,100,2014-08-02T11:00:00,3,20878553,206131
OK,93,19,703,93,2014-08-02T11:05:00,2,20879002,206131
OK,103,17,703,103,2014-08-02T11:10:00,1,20879451,206131
OK,94,19,703,94,2014-08-02T11:15:00,2,20879900,206131
OK,93,19,703,93,2014-08-02T11:20:00,2,20880349,206131
OK,100,18,703,100,2014-08-02T11:25:00,5,20880798,206131
OK,94,19,703,94,2014-08-02T11:30:00,4,20881247,206131
OK,94,19,703,94,2014-08-02T11:35:00,2,20881696,206131
OK,44,41,703,44,2014-08-02T11:40:00,2,20882145,206131
OK,58,31,703,58,2014-08-02T11:45:00,1,20882594,206131
OK,58,31,703,58,2014-08-02T11:50:00,0,20883043,206131
OK,58,31,703,58,2014-08-02T11:55:00,0,20883492,206131
OK,93,19,703,93,2014-08-02T12:00:00,1,20883941,206131
OK,93,19,703,93,2014-08-02T12:05:00,0,20884390,206131
OK,93,19,703,93,2014-08-02T12:10:00,2,20884839,206131
OK,93,19,703,93,2014-08-02T12:15:00,2,20885288,206131
OK,93,19,703,93,2014-08-02T12:20:00,0,20885737,206131
OK,93,19,703,93,2014-08-02T12:25:00,0,20886186,206131
OK,93,19,703,93,2014-08-02T12:30:00,0,20886635,206131
OK,94,19,703,94,2014-08-02T12:35:00,3,20887084,206131
OK,94,19,703,94,2014-08-02T12:40:00,5,20887533,206131
OK,66,27,703,66,2014-08-02T12:45:00,4,20887982,206131
OK,75,24,703,75,2014-08-02T12:50:00,1,20888431,206131
OK,75,24,703,75,2014-08-02T12:55:00,0,20888880,206131
OK,75,24,703,75,2014-08-02T13:00:00,0,20889329,206131
OK,81,22,703,81,2014-08-02T13:05:00,1,20889778,206131
OK,97,18,703,97,2014-08-02T13:10:00,3,20890227,206131
OK,99,18,703,99,2014-08-02T13:15:00,2,20890676,206131
OK,99,18,703,99,2014-08-02T13:20:00,0,20891125,206131
OK,99,18,703,99,2014-08-02T13:25:00,0,20891574,206131
OK,69,26,703,69,2014-08-02T13:30:00,1,20892023,206131
OK,78,23,703,78,2014-08-02T13:35:00,2,20892472,206131
OK,87,20,703,87,2014-08-02T13:40:00,1,20892921,206131
OK,75,24,703,75,2014-08-02T13:45:00,1,20893370,206131
OK,75,24,703,75,2014-08-02T13:50:00,1,20893819,206131
OK,87,20,703,87,2014-08-02T13:55:00,0,20894268,206131
OK,87,20,703,87,2014-08-02T14:00:00,0,20894717,206131
OK,87,20,703,87,2014-08-02T14:05:00,0,20895166,206131
OK,52,34,703,52,2014-08-02T14:10:00,1,20895615,206131
OK,68,26,703,68,2014-08-02T14:15:00,2,20896064,206131
OK,84,21,703,84,2014-08-02T14:20:00,3,20896513,206131
OK,94,19,703,94,2014-08-02T14:25:00,2,20896962,206131
OK,129,14,703,129,2014-08-02T14:30:00,1,20897411,206131
OK,49,37,703,49,2014-08-02T14:35:00,1,20897860,206131
OK,55,33,703,55,2014-08-02T14:40:00,2,20898309,206131
OK,63,28,703,63,2014-08-02T14:45:00,3,20898758,206131
OK,82,22,703,82,2014-08-02T14:50:00,2,20899207,206131
OK,63,28,703,63,2014-08-02T14:55:00,0,20899656,206131
OK,80,22,703,80,2014-08-02T15:00:00,1,20900105,206131
OK,80,22,703,80,2014-08-02T15:05:00,1,20900554,206131
OK,80,22,703,80,2014-08-02T15:10:00,0,20901003,206131
OK,80,22,703,80,2014-08-02T15:15:00,0,20901452,206131
OK,83,21,703,83,2014-08-02T15:20:00,1,20901901,206131
OK,83,21,703,83,2014-08-02T15:25:00,1,20902350,206131
OK,83,21,703,83,2014-08-02T15:30:00,0,20902799,206131
OK,83,21,703,83,2014-08-02T15:35:00,0,20903248,206131
OK,83,21,703,83,2014-08-02T15:40:00,0,20903697,206131
OK,83,21,703,83,2014-08-02T15:45:00,0,20904146,206131
OK,76,23,703,76,2014-08-02T15:50:00,3,20904595,206131
OK,88,20,703,88,2014-08-02T15:55:00,4,20905044,206131
OK,100,18,703,100,2014-08-02T16:00:00,0,20905493,206131
OK,100,18,703,100,2014-08-02T16:05:00,0,20905942,206131
OK,100,18,703,100,2014-08-02T16:10:00,0,20906391,206131
OK,77,23,703,77,2014-08-02T16:15:00,1,20906840,206131
OK,77,23,703,77,2014-08-02T16:20:00,3,20907289,206131
OK,69,26,703,69,2014-08-02T16:25:00,3,20907738,206131
OK,62,29,703,62,2014-08-02T16:30:00,1,20908187,206131
OK,97,18,703,97,2014-08-02T16:35:00,1,20908636,206131
OK,97,18,703,97,2014-08-02T16:40:00,1,20909085,206131
OK,50,36,703,50,2014-08-02T16:45:00,1,20909534,206131
OK,65,27,703,65,2014-08-02T16:50:00,2,20909983,206131
OK,81,22,703,81,2014-08-02T16:55:00,1,20910432,206131
OK,76,23,703,76,2014-08-02T17:00:00,1,20910881,206131
OK,76,23,703,76,2014-08-02T17:05:00,0,20911330,206131
OK,76,23,703,76,2014-08-02T17:10:00,0,20911779,206131
OK,78,23,703,78,2014-08-02T17:15:00,1,20912228,206131
OK,78,23,703,78,2014-08-02T17:20:00,3,20912677,206131
OK,76,23,703,76,2014-08-02T17:25:00,2,20913126,206131
OK,113,16,703,113,2014-08-02T17:30:00,0,20913575,206131
OK,92,19,703,92,2014-08-02T17:35:00,2,20914024,206131
OK,92,19,703,92,2014-08-02T17:40:00,2,20914473,206131
OK,76,23,703,76,2014-08-02T17:45:00,1,20914922,206131
OK,76,23,703,76,2014-08-02T17:50:00,1,20915371,206131
OK,76,23,703,76,2014-08-02T17:55:00,0,20915820,206131
OK,76,23,703,76,2014-08-02T18:00:00,0,20916269,206131
OK,76,23,703,76,2014-08-02T18:05:00,0,20916718,206131
OK,155,11,703,155,2014-08-02T18:10:00,1,20917167,206131
OK,155,11,703,155,2014-08-02T18:15:00,1,20917616,206131
OK,161,11,703,161,2014-08-02T18:20:00,1,20918065,206131
OK,161,11,703,161,2014-08-02T18:25:00,1,20918514,206131
OK,49,37,703,49,2014-08-02T18:30:00,1,20918963,206131
OK,49,37,703,49,2014-08-02T18:35:00,1,20919412,206131
OK,49,37,703,49,2014-08-02T18:40:00,0,20919861,206131
OK,49,37,703,49,2014-08-02T18:45:00,0,20920310,206131
OK,49,37,703,49,2014-08-02T18:50:00,0,20920759,206131
OK,49,37,703,49,2014-08-02T18:55:00,0,20921208,206131
OK,100,18,703,100,2014-08-02T19:00:00,1,20921657,206131
OK,100,18,703,100,2014-08-02T19:05:00,1,20922106,206131
OK,100,18,703,100,2014-08-02T19:10:00,0,20922555,206131
OK,100,18,703,100,2014-08-02T19:15:00,0,20923004,206131
OK,100,18,703,100,2014-08-02T19:20:00,1,20923453,206131
OK,100,18,703,100,2014-08-02T19:25:00,1,20923902,206131
OK,100,18,703,100,2014-08-02T19:30:00,0,20924351,206131
OK,100,18,703,100,2014-08-02T19:35:00,0,20924800,206131
OK,100,18,703,100,2014-08-02T19:40:00,0,20925249,206131
OK,100,18,703,100,2014-08-02T19:45:00,0,20925698,206131